TimeMST,TemperatureF,Dew PointF,Humidity,Sea Level PressureIn,VisibilityMPH,Wind Direction,Wind SpeedMPH,Gust SpeedMPH,PrecipitationIn,Events,Conditions,WindDirDegrees,DateUTC
12:56 AM,1.0,-4.0,79,30.18,-9999.0,South,10.4,-,N/A,,Unknown,190,2013-01-15 07:56:00
1:56 AM,3.0,-2.9,76,30.17,-9999.0,SSW,9.2,-,N/A,,Unknown,200,2013-01-15 08:56:00
2:56 AM,3.0,-4.0,73,30.16,-9999.0,SSW,8.1,-,N/A,,Unknown,210,2013-01-15 09:56:00
3:56 AM,5.0,-2.9,70,30.13,-9999.0,SW,13.8,-,N/A,,Unknown,220,2013-01-15 10:56:00
4:56 AM,6.1,-2.0,69,30.12,-9999.0,SSW,11.5,-,N/A,,Unknown,210,2013-01-15 11:56:00
5:56 AM,5.0,-2.0,73,30.12,-9999.0,SW,9.2,-,N/A,,Unknown,220,2013-01-15 12:56:00
6:56 AM,8.1,-0.0,70,30.11,-9999.0,SW,11.5,-,N/A,,Unknown,230,2013-01-15 13:56:00
7:56 AM,14.0,5.0,67,30.11,-9999.0,SW,12.7,-,N/A,,Unknown,230,2013-01-15 14:56:00
8:56 AM,16.0,8.1,71,30.10,-9999.0,SW,11.5,-,N/A,,Unknown,230,2013-01-15 15:56:00
9:56 AM,19.9,12.9,74,30.09,-9999.0,SW,9.2,-,N/A,,Unknown,230,2013-01-15 16:56:00
10:56 AM,24.1,18.0,77,30.08,-9999.0,WSW,13.8,-,N/A,,Unknown,240,2013-01-15 17:56:00
11:56 AM,27.0,21.0,78,30.04,-9999.0,WSW,11.5,-,N/A,,Unknown,250,2013-01-15 18:56:00
12:56 PM,28.9,23.0,78,30.02,-9999.0,WSW,12.7,-,N/A,,Unknown,250,2013-01-15 19:56:00
1:56 PM,32.0,26.1,79,29.99,-9999.0,West,12.7,24.2,N/A,,Unknown,270,2013-01-15 20:56:00
2:56 PM,32.0,28.9,88,29.99,-9999.0,West,17.3,25.3,N/A,,Unknown,280,2013-01-15 21:56:00
3:56 PM,33.1,28.9,85,29.98,-9999.0,West,23.0,28.8,N/A,,Unknown,280,2013-01-15 22:56:00
4:56 PM,33.1,30.0,89,29.96,-9999.0,West,18.4,-,N/A,,Unknown,270,2013-01-15 23:56:00
5:56 PM,34.0,30.0,85,29.95,-9999.0,West,21.9,-,N/A,,Unknown,270,2013-01-16 00:56:00
6:56 PM,35.1,28.9,78,29.93,-9999.0,West,21.9,28.8,N/A,,Unknown,280,2013-01-16 01:56:00
7:56 PM,35.1,28.9,78,29.90,-9999.0,West,27.6,-,N/A,,Unknown,280,2013-01-16 02:56:00
8:56 PM,35.1,28.0,76,29.89,-9999.0,West,21.9,31.1,N/A,,Unknown,280,2013-01-16 03:56:00
9:56 PM,36.0,28.9,76,29.88,-9999.0,WNW,28.8,35.7,N/A,,Unknown,290,2013-01-16 04:56:00
11:56 PM,37.0,28.9,73,29.88,-9999.0,WNW,26.5,-,N/A,,Unknown,300,2013-01-16 06:56:00